Retour au catalogue

SL-16 DEB

ActifLEO
NORAD 28354·DEBRIS·🇷🇺 Russia

Lancé Jun 10, 2004 depuis Baikonur Cosmodrome

Loading…

Prochains Passages (prochaines 24 heures)

TLE

FraisSource: Space-Track

Époque: Sep 14, 2026, 13:32 UTC

1 28354U 04021C   26257.56412561  .00000149  00000-0  18673-3 0  9993
2 28354  70.9567 330.7945 0222505 229.6841 128.4631 13.69075213111507

Suivez SL-16 DEB en temps réel avec AllMySat

Download on the App Store